Regional Weather Roundup
Issued by NWS

Home | Current Version | Previous Version | Text Only | Print | Product List | Glossary Off
Versions: 1 2 3 4 5 6 7 8 9 10 11 12 13 14 15 16 17 18 19 20 21 22 23 24 25 26 27 28 29 30 31 32 33 34 35 36 37 38 39 40 41 42 43 44 45 46 47 48 49 50

000
ASUS43 KLSX 230610
RWRMO

WEATHER SUMMARY FOR MISSOURI
NATIONAL WEATHER SERVICE SPRINGFIELD MO
100 AM CDT SAT JUN 23 2018

NOTE: "FAIR" INDICATES FEW OR NO CLOUDS BELOW 12,000 FEET WITH NO
       SIGNIFICANT WEATHER AND/OR OBSTRUCTIONS TO VISIBILITY.
       CURRENT SKY AND/OR WEATHER CONDITIONS ARE NOT AVAILABLE FOR
       CHILLICOTHE AND FARMINGTON.

MOZ001>031-035>038-043-044-053-054-230700-
...NORTHERN AND WESTERN MISSOURI...

CITY           SKY/WX    TMP DP  RH WIND       PRES   REMARKS
KANSAS CTY INT CLOUDY    65  63  93 SW3       29.82F
6HR MIN TEMP:  62; 6HR MAX TEMP:  71;

KANSAS C DTWN  CLOUDY    68  62  81 SW3       29.81F
6HR MIN TEMP:  68; 6HR MAX TEMP:  72;

LEE`S SUMMIT   CLOUDY    67  64  90 W3        29.83F
6HR MIN TEMP:  66; 6HR MAX TEMP:  71;

ST JOSEPH      CLOUDY    64  64 100 CALM      29.81F
6HR MIN TEMP:  62; 6HR MAX TEMP:  71;

CHILLICOTHE      N/A     64  63  96 SW3       29.83F
6HR MIN TEMP:  64; 6HR MAX TEMP:  71;

KIRKSVILLE     CLOUDY    64  63  96 W5        29.82F
6HR MIN TEMP:  60; 6HR MAX TEMP:  69;


$$
MOZ066>068-077>081-088>096-101>105-230700-
...SOUTHWEST MISSOURI...

CITY           SKY/WX    TMP DP  RH WIND       PRES   REMARKS
SPRINGFIELD    CLOUDY    67  63  87 NW3       29.84S
6HR MIN TEMP:  67; 6HR MAX TEMP:  80;

JOPLIN         PTCLDY    67  64  90 CALM      29.86F
6HR MIN TEMP:  67; 6HR MAX TEMP:  81;

BRANSON        CLEAR     66  63  88 NW7       29.86R

$$
MOZ032>034-039>042-045>050-055>058-069>072-230700-
...CENTRAL MISSOURI...

CITY           SKY/WX    TMP DP  RH WIND       PRES   REMARKS
COLUMBIA       CLOUDY    68  63  84 W7        29.83R
6HR MIN TEMP:  68; 6HR MAX TEMP:  72;

JEFFERSON CITY CLOUDY    69  63  81 W5        29.83R
6HR MIN TEMP:  69; 6HR MAX TEMP:  74;

ROLLA          CLOUDY    66  63  90 W6        29.84R
6HR MIN TEMP:  64; 6HR MAX TEMP:  72;

SEDALIA        CLOUDY    69  64  84 W3        29.85S
6HR MIN TEMP:  69; 6HR MAX TEMP:  71;

WHITEMAN AFB   CLOUDY    68  64  87 W5        29.80F
WARRENSBURG    CLOUDY    68  61  77 CALM      29.84F
OSAGE BEACH    CLOUDY    68  64  87 CALM      29.85R

$$
MOZ051-052-059>065-230700-
...EAST CENTRAL MISSOURI...

CITY           SKY/WX    TMP DP  RH WIND       PRES   REMARKS
ST LOUIS INTL  CLOUDY    68  65  90 W6        29.79R
6HR MIN TEMP:  68; 6HR MAX TEMP:  71;

SPIRIT OF STL  CLOUDY    68  65  90 W7        29.78R
6HR MIN TEMP:  68; 6HR MAX TEMP:  71; 6HR PCP:  0.01;

ST CHARLES     CLOUDY    68  65  90 W5        29.78R
6HR MIN TEMP:  66; 6HR MAX TEMP:  71; 6HR PCP:  0.03;


$$
MOZ072>076-082>087-097>100-106>115-230700-
...SOUTH CENTRAL AND SOUTHEAST MISSOURI...

CITY           SKY/WX    TMP DP  RH WIND       PRES   REMARKS
CAPE GIRARDEAU FAIR      69  66  90 CALM      29.78S
6HR MIN TEMP:  69; 6HR MAX TEMP:  77;

FARMINGTON     PTCLDY    65  64  97 CALM      29.81S
6HR MIN TEMP:  65; 6HR MAX TEMP:  75;

POPLAR BLUFF   FAIR      70  70 100 CALM      29.79R
6HR MIN TEMP:  70; 6HR MAX TEMP:  80;

WEST PLAINS    PTCLDY    66  63  90 CALM      29.83F
6HR MIN TEMP:  65; 6HR MAX TEMP:  80;


$$




USA.gov is the U.S. government's official web portal to all federal, state and local government web resources and services.